SL-14 R/B

基本信息
目录编号:
24731
目录名称:
SL-14 R/B
国际标识:
1997-006G
轨道中心:
EARTH
物体状态:
在轨
发射日期:
1997-02-14 UTC
国别:
俄罗斯(独联体) (CIS)
轨道信息
数据来源: 国际轨道数据
星历时间: 2026-07-13T19:06:14+0800
半长轴: 7820.657km
偏心率: 0.0040616
轨道倾角: 82.603°
近地点辐角: 327.631°
升交点赤经: 323.253°
平近点角: 95.646°
近地点: 1410.755km
远地点: 1474.285km
周期: 114.716分钟
每日圈数: 12.552723
详细信息
发射场:
PKMTR
轨道高度:
LEO
数据来源:
AOE Integration Group
参考系:
TEME
时间系统:
UTC
历元类型:
SGP4
2D轨道图
3D轨道图
轨道高度分析图
轨道倾角分析图
轨道综合分析图
查看轨道综合分析图